Lid_Strength_Index
1 1 0 0 0 -0 -1 -1 -1 -1 -1 -1 -0 -0 -0 -0 0 3 8 4 2 -2 -0 6 7 7 7 8 8 10 14 16 15 14 13 12 11 11 11 10 11 10 10 10 8
1 1 0 0 0 -0 -0 -1 -1 -1 -1 -1 -0 -0 0 -0 4 6 1 -1 -3 -2 6 8 9 8 10 9 9 12 15 14 13 13 13 11 12 11 12 11 12 12 10 9 8
1 1 1 1 0 0 -0 -1 -1 -1 -1 -1 -0 -0 -0 1 8 8 -1 -2 -3 -1 6 7 7 8 11 10 10 12 14 12 11 10 11 11 12 11 13 12 11 11 11 10 10
1 1 1 1 1 0 0 -0 -1 -1 -1 -1 -0 -0 0 4 13 5 -1 -2 -2 3 6 7 9 10 12 12 11 12 10 10 9 10 11 11 11 11 11 10 9 10 10 10 11
1 1 1 1 1 1 0 -0 -1 -1 -1 -1 -0 -0 4 9 8 2 -1 -1 4 5 8 8 10 10 12 12 12 13 12 10 10 10 11 11 11 11 11 9 10 10 11 11 11
1 1 1 1 1 1 0 -0 -0 -1 -1 -0 -0 1 7 10 4 2 2 4 6 7 8 8 9 9 11 12 12 12 12 11 11 11 11 11 13 11 11 11 11 11 12 12 12
1 1 1 1 0 0 -0 -0 -1 -1 -1 -0 -0 2 7 7 3 2 3 5 5 7 8 8 8 10 10 12 11 12 13 12 12 12 12 12 14 13 11 11 12 12 12 12 12
1 1 2 2 1 1 0 -0 -1 -1 -1 -0 0 4 9 6 5 4 4 6 6 6 7 8 8 10 11 11 12 14 15 16 13 13 13 13 15 11 12 13 14 13 14 13 13
2 2 2 2 1 1 1 1 1 0 1 1 5 8 9 5 8 7 7 8 8 8 8 7 9 11 11 14 16 16 18 17 14 13 13 14 16 12 11 13 15 15 14 14 14
2 2 2 3 3 2 1 0 1 2 2 2 4 9 8 9 8 7 8 7 9 9 10 10 12 14 15 16 18 17 18 17 17 14 14 15 15 13 12 13 15 16 16 15 15
2 2 2 3 2 2 2 4 7 8 7 8 9 9 9 8 7 8 8 9 9 11 14 13 15 16 14 14 15 15 17 18 17 14 15 15 16 15 14 15 16 16 16 16 16
2 2 2 2 2 2 3 6 8 8 10 6 7 8 8 8 10 9 8 11 11 13 13 14 16 13 13 13 14 15 17 17 15 14 15 16 15 16 16 16 16 16 16 16 16
2 2 2 2 2 3 5 5 7 8 11 9 7 8 8 9 10 9 9 10 12 13 14 15 14 13 13 15 16 17 17 17 16 16 16 17 17 17 16 16 16 16 16 16 16
2 3 3 2 4 4 5 5 7 7 13 12 10 10 10 9 11 10 9 10 13 14 14 15 13 14 16 15 15 17 14 15 16 17 19 17 21 18 17 17 16 16 17 16 16
2 2 2 2 4 6 6 7 7 8 20 11 12 9 11 10 12 13 11 12 14 14 14 15 15 15 15 15 14 15 14 15 16 18 19 19 20 19 17 18 17 17 16 16 16
2 2 2 3 3 5 7 7 6 13 19 14 13 14 14 13 13 13 13 12 12 14 15 14 14 15 14 15 14 14 15 16 17 18 21 18 18 18 18 17 17 16 16 15 15
2 2 3 2 5 6 5 5 13 17 12 15 15 14 15 15 15 14 15 16 16 18 17 16 15 15 14 16 15 16 17 20 21 21 20 17 19 17 16 15 15 16 16 16 16
2 2 3 2 4 4 4 9 17 13 13 13 14 14 15 14 15 14 16 16 15 16 17 17 18 15 14 14 15 16 16 19 24 22 20 18 19 17 16 14 14 14 15 16 16
2 3 3 2 4 3 7 15 15 13 10 11 11 15 14 13 13 15 16 15 14 14 15 17 17 15 14 14 13 16 17 15 18 26 22 19 18 16 16 16 16 16 16 17 16
4 4 5 2 3 4 10 13 12 10 9 10 14 13 15 14 14 14 15 13 13 13 13 14 17 15 14 14 14 14 14 17 18 24 25 20 19 18 18 17 17 17 16 16 15
5 7 5 3 3 7 13 12 11 9 8 10 12 13 14 14 13 14 14 13 13 14 13 14 15 16 15 15 15 16 17 16 16 18 23 25 20 16 15 15 16 15 14 14 15
7 10 6 3 9 9 12 11 9 10 8 9 9 11 12 12 13 13 14 13 12 12 13 13 14 19 16 15 14 14 15 15 16 19 19 18 18 14 13 13 13 13 13 14 14
9 10 6 6 12 12 11 11 9 10 10 10 11 10 10 12 14 11 12 12 12 12 13 12 15 22 18 17 16 15 14 14 14 16 18 19 19 13 13 13 12 13 13 13 14
10 13 10 9 9 10 12 12 11 9 9 9 10 10 11 12 11 13 14 13 13 12 11 11 16 18 18 18 16 18 16 14 15 19 18 18 17 15 14 13 13 14 13 14 15
9 12 11 14 13 11 10 12 12 13 10 9 11 11 11 14 14 14 13 13 12 13 13 12 15 16 16 15 15 16 16 15 17 16 16 16 16 14 13 13 13 14 15 16 16
12 12 10 13 11 11 11 13 12 12 11 12 12 12 11 12 13 15 14 14 14 14 14 15 17 17 18 17 16 16 15 15 15 15 16 15 15 12 13 15 16 16 16 16 15
9 9 10 11 13 14 14 13 12 10 12 12 12 13 13 12 13 15 13 14 14 15 15 16 18 19 20 21 20 22 19 16 14 14 13 16 14 16 17 15 16 16 15 15 14